STARLINK-2206

decayed
NORAD ID: 47420 Int'l Des: 2021-006 Owner: SPXS Country: US Constellation: starlink
LEOCIRCULARRETROGRADE
Gruppe

Über STARLINK-2206

Beschreibung wird geladen...

Höhenverlauf

Altitude vs Time

uPlot chart will show altitude changes over time

Zweizeiliger Elementsatz

1 47420U 21006H 21360.98571704 .99999999 30737-5 87872-3 0 9991
2 47420 97.4475 64.6868 0009295 243.9298 203.4893 16.51963604 51540
Epoch: 26. Dez. 2021 • Age: 32682 hours

Aktueller Status

Position data unavailable
Startdatum 24. Jan. 2021
Alter 4.6 years
Verglühungsdatum 27. Dez. 2021
Typ internet

Technische Details

Klassifizierung Payload
Masse 260.00 kg
Trockenmasse 248.00 kg
Gesamtmasse 260.00 kg
Länge 0.20 m
Durchmesser 2.80 m
Spannweite 9.00 m
Form Box + pan
Hersteller SPXS
Bus-Typ Starlink
Phasenstatus Reentered
Besitzer/Staat SPXS/US

Große Konstellationen

Loading constellations...